Weather History for Custer, SD

Change the Weather History Date:

Wednesday, January 30, 2013

  Actual Average Record
Temperature  
Mean Temperature 11 °F 24 °F  
Max Temperature 23 °F 35 °F 64 °F (1960)
Min Temperature -1 °F 14 °F -26 °F (1951)
Degree Days  
Heating Degree Days 54 41  
Month to date heating degree days 1215 1230  
Since 1 July heating degree days 4360 4700  
Cooling Degree Days 0 0  
Month to date cooling degree days 0 0  
Year to date cooling degree days 0 0  
Moisture  
Dew Point 7 °F    
Average Humidity 76    
Maximum Humidity 95    
Minimum Humidity 56    
Precipitation  
Precipitation T in 0.02 in 0.45 in (1971)
Month to date precipitation 0.80 0.32  
Year to date precipitation 0.80 0.32  
Sea Level Pressure  
Sea Level Pressure 29.84 in    
Wind  
Wind Speed 9 mph (WNW)    
Max Wind Speed 21 mph    
Max Gust Speed 37 mph    
Visibility 10 miles    
Events Snow    
T = Trace of Precipitation, MM = Missing Value Source: NWS Daily Summary

Daily Weather History Graph

Daily Weather History Graph

Search for Another Location

Airport:

Trip Planner

Search our weather history database for the weather conditions in past years. The results will help you decide how hot, cold, wet, or windy it might be!

Date:

Astronomy

Jan. 30, 2013 Rise Set
Actual Time 7:13 AM MST 5:03 PM MST
Civil Twilight 6:42 AM MST 5:33 PM MST
Nautical Twilight 6:07 AM MST 6:08 PM MST
Astronomical Twilight 5:34 AM MST 6:42 PM MST
Moon 9:14 PM MST (1/30) 8:33 AM MST (1/30)
Length of Visible Light 10h 51m
Length of Day
9h 50m
Waning Gibbous, 87% of the Moon is Illuminated
Jan 30
Waning Gibbous
Feb 3
Last Quarter
Feb 10
New
Feb 17
First Quarter
Feb 25
Full

Hourly Weather History & Observations

Time (MST) Temp. Windchill Dew Point Humidity Pressure Visibility Wind Dir Wind Speed Gust Speed Precip Events Conditions
12:53 AM 7.0 °F - 1.0 °F 77% 29.97 in 10.0 mi Calm Calm - N/A   Overcast
1:53 AM 1.9 °F -9.2 °F -0.9 °F 88% 29.98 in 10.0 mi WSW 5.8 mph - N/A   Scattered Clouds
2:53 AM 1.0 °F - -2.0 °F 87% 29.96 in 10.0 mi Calm Calm - N/A   Clear
3:53 AM 1.0 °F -6.7 °F -2.9 °F 83% 29.94 in 10.0 mi WSW 3.5 mph - N/A   Clear
4:53 AM 5.0 °F -2.1 °F -2.0 °F 73% 29.91 in 10.0 mi NNW 3.5 mph - N/A   Clear
5:53 AM 8.1 °F -2.0 °F -0.9 °F 67% 29.89 in 10.0 mi WNW 5.8 mph - N/A   Partly Cloudy
6:53 AM 10.0 °F 1.8 °F 1.9 °F 70% 29.89 in 10.0 mi NW 4.6 mph - N/A   Overcast
7:53 AM 12.0 °F 4.1 °F 3.0 °F 67% 29.88 in 10.0 mi Variable 4.6 mph - N/A   Overcast
8:53 AM 14.0 °F 2.0 °F 3.9 °F 64% 29.87 in 10.0 mi West 9.2 mph - N/A   Overcast
9:53 AM 17.1 °F 6.6 °F 5.0 °F 59% 29.86 in 10.0 mi West 8.1 mph - N/A   Partly Cloudy
10:53 AM 19.9 °F 8.6 °F 6.1 °F 55% 29.85 in 10.0 mi NW 10.4 mph 26.5 mph N/A   Partly Cloudy
11:53 AM 21.9 °F 9.8 °F 8.1 °F 55% 29.83 in 10.0 mi WNW 12.7 mph 28.8 mph N/A   Mostly Cloudy
12:53 PM 21.0 °F 7.1 °F 10.0 °F 63% 29.82 in 10.0 mi WNW 16.1 mph 26.5 mph N/A   Mostly Cloudy
1:31 PM 21.2 °F 8.9 °F 10.4 °F 63% 29.61 in 10.0 mi WNW 12.7 mph 23.0 mph N/A   Mostly Cloudy
1:39 PM 21.2 °F 6.8 °F 10.4 °F 63% 29.61 in 10.0 mi WNW 17.3 mph 24.2 mph N/A   Overcast
1:49 PM 21.2 °F 8.3 °F 10.4 °F 63% 29.60 in 10.0 mi WNW 13.8 mph 27.6 mph N/A   Overcast
1:53 PM 23.0 °F 9.2 °F 10.9 °F 60% 29.81 in 10.0 mi WNW 17.3 mph 27.6 mph N/A   Overcast
2:53 PM 21.9 °F 10.4 °F 12.0 °F 66% 29.83 in 9.0 mi WNW 11.5 mph 26.5 mph 0.00 in Snow Light Snow
3:49 PM 23.0 °F 11.7 °F 12.2 °F 63% 29.62 in 8.0 mi NW 11.5 mph 24.2 mph 0.00 in Snow Light Snow
3:53 PM 23.0 °F 13.1 °F 12.9 °F 65% 29.84 in 9.0 mi WNW 9.2 mph 20.7 mph 0.00 in   Overcast
4:53 PM 21.9 °F 11.0 °F 12.0 °F 66% 29.84 in 10.0 mi WNW 10.4 mph 25.3 mph N/A   Mostly Cloudy
5:53 PM 21.0 °F 13.4 °F 12.0 °F 68% 29.84 in 10.0 mi WNW 5.8 mph 16.1 mph N/A   Overcast
6:53 PM 21.0 °F 10.6 °F 12.9 °F 71% 29.84 in 10.0 mi NW 9.2 mph 23.0 mph N/A   Overcast
7:53 PM 21.9 °F 11.0 °F 12.0 °F 66% 29.84 in 10.0 mi WNW 10.4 mph 18.4 mph N/A   Overcast
8:53 PM 21.0 °F 9.3 °F 12.0 °F 68% 29.85 in 7.0 mi WNW 11.5 mph 20.7 mph 0.00 in   Overcast
9:53 PM 19.0 °F 7.5 °F 8.1 °F 62% 29.87 in 10.0 mi NW 10.4 mph 23.0 mph N/A   Mostly Cloudy
10:53 PM 17.1 °F 4.3 °F 7.0 °F 65% 29.86 in 10.0 mi NW 11.5 mph 21.9 mph N/A   Mostly Cloudy
11:53 PM 17.1 °F 3.0 °F 6.1 °F 62% 29.88 in 10.0 mi WNW 13.8 mph 25.3 mph N/A   Clear